Location: Unspecified
(33.6682°S, 0.0000°E)
Time: 17:36:35
(UTC+00:00)

Tiros 1 despin weight - Visible Passes

Search period start: 19 June 2019 00:00
Search period end: 29 June 2019 00:00
Orbit: 595 x 642 km, 48.2° (Epoch: 19 June)

Date Brightness Start Highest point End Pass type
(mag) Time Alt. Az. Time Alt. Az. Time Alt. Az.
19 Jun ? 17:51:38 10° SW 17:56:13 48° SSE 18:00:23 12° ENE visible
19 Jun ? 19:33:38 10° WSW 19:37:33 28° NW 19:37:33 28° NW visible
20 Jun ? 18:08:11 10° SW 18:12:56 89° NW 18:17:36 10° NE visible
20 Jun ? 19:51:53 10° W 19:53:56 13° NW 19:55:05 12° NW visible
21 Jun ? 18:25:00 10° WSW 18:29:28 43° NW 18:33:52 10° NNE visible
22 Jun ? 18:42:24 10° W 18:45:51 20° NW 18:49:16 10° N visible
24 Jun ? 17:33:33 10° WSW 17:37:43 31° NW 17:41:50 10° NNE visible
25 Jun ? 17:51:27 10° W 17:54:03 15° NW 17:56:38 10° NNW visible
